Weather observations for the past three days for
Valparaiso Porter County Municipal Airport
Imperial (Metric)
Date Time (cdt) Wind (mph) Vis. (mi.) Weather Sky Cond. Temperature (ºF) Relative Humidity Wind Chill (°F) Heat Index (°F) Pressure Precipitation (in)
Air Dwpt 6 hour altimeter (in) sea level (mb) 1 hr 3 hr 6 hr
Max. Min.
15 03:56 SW 12 10.00 Overcast OVC006 66.9 64.9 93% 29.91 1012.2 0.21
15 02:56 SW 13 10.00 Overcast BKN004 BKN023 OVC095 66.9 66 97% 29.88 1011.4 0.09
15 01:56 SW 14 G 23 10.00 Thunderstorm in Vicinity Light Rain SCT004 BKN041 OVC100 68 66.9 96% 29.9 1012.1 0.12
15 00:56 SE 3 7.00 Thunderstorm Light Rain BKN043 BKN075 OVC095 69.1 66.9 81 68 93% 29.89 1011.7 0.85 0.9
14 23:56 NW 13 G 41 7.00 Thunderstorm Rain FEW030 SCT046 BKN060 71.1 64.9 81% 29.92 1012.6 0.05
14 22:56 S 6 10.00 A Few Clouds FEW036 78.1 73.9 87% 81 29.9 1011.8
14 21:56 SW 5 10.00 Fair CLR 78.1 73.9 87% 81 29.9 1012.0
14 20:56 S 3 10.00 Fair CLR 79 73.9 85% 83 29.9 0.0
14 19:56 S 6 10.00 Fair CLR 81 75 82% 87 29.91 0.0
14 18:56 S 6 10.00 Fair CLR 81 75 82.9 75 82% 87 29.93 1013.1
14 17:56 S 7 10.00 Fair CLR 81 73 77% 86 29.94 1013.3
14 16:56 S 6 10.00 Fair CLR 81 73 77% 86 29.95 1013.5
14 15:56 SW 12 10.00 Partly Cloudy SCT120 81 71.1 72% 85 29.96 1013.9
14 14:56 SW 13 G 22 10.00 Fair CLR 82 70 67% 86 29.97 1014.3
14 13:56 S 12 10.00 Fair CLR 78.1 69.1 74% 80 29.96 1014.2
14 12:56 SW 7 10.00 Fair CLR 75 69.1 82% 75 29.95 1013.6 0.15
14 11:56 SW 7 10.00 Fair CLR 72 69.1 91% 29.97 1014.3 0.02
14 10:56 E 3 10.00 Thunderstorm Light Rain BKN110 69.1 66.9 93% 29.96 1014.2 0.02
14 09:56 Calm 9.00 Thunderstorm Light Rain NULL 69.1 66 90% 30.06 1017.3 0.11 0.11
14 06:56 Calm 0.00 NULL NULL 68 66 68 66 93% 30.05 1017.1 1.35
14 05:56 SE 3 10.00 Partly Cloudy SCT021 SCT120 66.9 64.9 93% 30.05 1016.8
14 04:56 S 12 10.00 Fair CLR 66.9 64.9 93% 30.02 1016.0
14 03:56 SE 8 10.00 Mostly Cloudy FEW039 SCT060 BKN070 66 64.9 96% 30.02 1015.8 0.34 1.35
14 02:56 Calm 10.00 Thunderstorm in Vicinity Light Rain FEW033 SCT095 BKN110 66.9 64.9 93% 30.09 1018.2 0.11
14 01:56 N 9 G 17 8.00 Light Rain BKN042 OVC070 66.9 64.9 93% 30.12 1019.3 0.9
14 00:56 N 16 G 29 10.00 Thunderstorm in Vicinity SCT021 BKN035 OVC090 72 64.9 84 72 79% 30.11 1019.1 0.03
13 23:56 SW 6 10.00 Mostly Cloudy BKN080 BKN110 77 71.1 82% 79 30.08 1017.9
13 22:56 S 5 10.00 Mostly Cloudy BKN075 77 71.1 82% 79 30.07 1017.6
13 21:56 Calm 10.00 Mostly Cloudy SCT080 BKN110 75.9 70 82% 77 30.09 1018.4 0.03
13 20:56 S 3 10.00 A Few Clouds FEW100 75.9 69.1 79% 77 30.07 1017.6 0.03
13 19:56 W 17 G 29 10.00 Thunderstorm SCT041 81 64 57% 83 30.1 1018.7
13 18:56 S 8 10.00 Fair CLR 84 69.1 88 84 61% 88 30.09 1018.4
13 17:56 SW 9 10.00 Fair CLR 86 66.9 53% 89 30.11 1018.9
13 16:56 S 8 10.00 Partly Cloudy SCT035 SCT043 87.1 72 61% 94 30.11 1019.0
13 15:56 S 10 10.00 A Few Clouds FEW035 87.1 71.1 59% 93 30.12 1019.5
13 14:56 SW 9 10.00 Partly Cloudy SCT039 86 71.1 61% 92 30.15 1020.4
13 13:56 SW 9 10.00 Partly Cloudy FEW040 SCT047 86 70 59% 91 30.15 1020.5
13 12:56 S 7 G 21 10.00 Partly Cloudy SCT036 84.9 69.1 84.9 69.1 59% 89 30.16 1020.7
13 11:56 SW 7 10.00 A Few Clouds FEW031 84 68 59% 87 30.17 1021.2
13 10:56 Vrbl 6 10.00 Partly Cloudy SCT028 82 69.1 65% 85 30.18 1021.6
13 09:56 S 7 10.00 Fair CLR 80.1 69.1 69% 83 30.18 1021.4
13 08:56 S 7 10.00 Fair CLR 77 69.1 77% 79 30.2 1022.0
13 07:56 S 5 10.00 Fair CLR 73.9 66 76% 30.2 1022.2
13 06:56 Calm 8.00 Fair CLR 69.1 66 69.1 62.1 90% 30.19 1021.9
13 05:56 E 3 2.00 Fog/Mist CLR 63 62.1 97% 30.18 1021.5
13 04:56 Calm 8.00 Fair CLR 64 63 96% 30.17 1021.2
13 03:56 Calm 7.00 Fair CLR 63 62.1 97% 30.16 1020.7
13 02:56 Calm 10.00 Fair CLR 66 63 90% 30.15 1020.5
13 01:56 Calm 8.00 Fair CLR 64.9 64 97% 30.16 1020.7
13 00:56 Calm 10.00 Fair CLR 68 64.9 79 66 90% 30.16 1020.7
12 23:56 Calm 10.00 Fair CLR 66.9 64.9 93% 30.15 1020.6
12 22:56 Calm 10.00 Fair CLR 68 64.9 90% 30.15 1020.5
12 21:56 N 3 10.00 Fair CLR 70 66 87% 30.15 1020.3
12 20:56 N 3 10.00 Fair CLR 73 66 79% 30.14 1020.0
12 19:56 Calm 10.00 Fair CLR 75.9 68 77% 77 30.13 1019.7
12 18:56 Calm 10.00 Fair CLR 79 66 84.9 79 65% 81 30.11 1019.3
12 17:56 N 3 10.00 Fair CLR 80.1 66.9 64% 82 30.11 1019.1
12 16:56 N 5 10.00 Fair CLR 81 66.9 62% 83 30.11 1019.2
12 15:56 N 6 10.00 A Few Clouds FEW060 82.9 69.1 63% 87 30.11 1019.2
12 14:56 N 3 10.00 Mostly Cloudy SCT034 SCT043 BKN060 81 69.1 67% 84 30.11 1019.3
12 13:56 Calm 10.00 Mostly Cloudy FEW037 SCT049 BKN060 82.9 66 57% 85 30.12 1019.5
12 12:56 N 5 10.00 A Few Clouds FEW035 82 66.9 84.9 66.9 60% 85 30.13 1019.8
12 11:56 Calm 10.00 A Few Clouds FEW028 82.9 66.9 59% 86 30.14 1020.1
12 10:56 NE 3 10.00 Fair CLR 81 66.9 62% 83 30.14 1020.2
12 09:56 NE 3 10.00 Fair CLR 78.1 66.9 69% 80 30.14 1020.1
12 08:56 Vrbl 3 10.00 Fair CLR 73.9 66.9 79% 30.14 1020.3
12 07:56 Calm 10.00 Fair CLR 72 66.9 84% 30.13 1020.0
12 06:56 Calm 9.00 Fair CLR 66.9 64.9 66.9 62.1 93% 30.12 1019.5
12 05:56 Calm 6.00 Fog/Mist CLR 64 62.1 93% 30.11 1019.1
12 04:56 Calm 8.00 Fair CLR 63 61 93% 30.09 1018.5
Date Time (cdt) Wind (mph) Vis. (mi.) Weather Sky Cond. Air Dwpt Max. Min. Relative Humidity Wind Chill (°F) Heat Index (°F) altimeter (in) sea level (mb) 1 hr 3 hr 6 hr
6 hour
Temperature (ºF) Pressure Precipitation (in)